Location: Balaclava NSW 2575, Australia
(34.4510°S, 150.4953°E)
Time: 05:15:04
(UTC+10:00)

Envisat - Pass Details

Date: 21 May 2021
Orbit: 764 x 766 km, 98.1° (Epoch: 15 June)

Event Time Altitude Azimuth Distance (km) Brightness Sun altitude
Rises 18:33:44 0° 187° (S) 3,266 6.2 -19.1°
Reaches altitude 10° 18:36:41 10° 204° (SSW) 2,331 5.6 -19.7°
Maximum altitude 18:40:08 19° 246° (WSW) 1,804 5.6 -20.4°
Drops below altitude 10° 18:43:34 10° 289° (WNW) 2,312 6.6 -21.1°
Sets 18:46:30 0° 307° (NW) 3,229 7.3 -21.7°
